Year,Month,Day,Hour,Minute,Value (Times are PST for barometer in hPa)
2008,01,03,00,00,1004.98
2008,01,03,00,01,1004.95
2008,01,03,00,02,1004.90
2008,01,03,00,03,1004.81
2008,01,03,00,04,1004.81
2008,01,03,00,05,1004.81
2008,01,03,00,06,1004.83
2008,01,03,00,07,1004.78
2008,01,03,00,08,1004.81
2008,01,03,00,09,1004.78
2008,01,03,00,10,1004.78
2008,01,03,00,11,1004.74
2008,01,03,00,12,1004.71
2008,01,03,00,13,1004.73
2008,01,03,00,14,1004.67
2008,01,03,00,15,1004.71
2008,01,03,00,16,1004.67
2008,01,03,00,17,1004.71
2008,01,03,00,18,1004.67
2008,01,03,00,19,1004.64
2008,01,03,00,20,1004.64
2008,01,03,00,21,1004.61
2008,01,03,00,22,1004.57
2008,01,03,00,23,1004.56
2008,01,03,00,24,1004.49
2008,01,03,00,25,1004.44
2008,01,03,00,26,1004.44
2008,01,03,00,27,1004.40
2008,01,03,00,28,1004.40
2008,01,03,00,29,1004.40
2008,01,03,00,30,1004.40
2008,01,03,00,31,1004.38
2008,01,03,00,32,1004.43
2008,01,03,00,33,1004.37
2008,01,03,00,34,1004.40
2008,01,03,00,35,1004.37
2008,01,03,00,36,1004.37
2008,01,03,00,37,1004.34
2008,01,03,00,38,1004.34
2008,01,03,00,39,1004.30
2008,01,03,00,40,1004.29
2008,01,03,00,41,1004.23
2008,01,03,00,42,1004.23
2008,01,03,00,43,1004.23
2008,01,03,00,44,1004.23
2008,01,03,00,45,1004.27
2008,01,03,00,46,1004.27
2008,01,03,00,47,1004.20
2008,01,03,00,48,1004.16
2008,01,03,00,49,1004.10
2008,01,03,00,50,1004.06
2008,01,03,00,51,1004.03
2008,01,03,00,52,1004.03
2008,01,03,00,53,1004.06
2008,01,03,00,54,1004.03
2008,01,03,00,55,1004.03
2008,01,03,00,56,1004.06
2008,01,03,00,57,1004.00
2008,01,03,00,58,1004.02
2008,01,03,00,59,1003.96
2008,01,03,01,00,1004.00
2008,01,03,01,01,1003.96
2008,01,03,01,02,1003.93
2008,01,03,01,03,1003.93
2008,01,03,01,04,1003.93
2008,01,03,01,05,1003.93
2008,01,03,01,06,1003.96
2008,01,03,01,07,1003.93
2008,01,03,01,08,1003.86
2008,01,03,01,09,1003.82
2008,01,03,01,10,1003.76
2008,01,03,01,11,1003.77
2008,01,03,01,12,1003.83
2008,01,03,01,13,1003.83
2008,01,03,01,14,1003.86
2008,01,03,01,15,1003.86
2008,01,03,01,16,1003.81
2008,01,03,01,17,1003.69
2008,01,03,01,18,1003.66
2008,01,03,01,19,1003.62
2008,01,03,01,20,1003.66
2008,01,03,01,21,1003.62
2008,01,03,01,22,1003.66
2008,01,03,01,23,1003.62
2008,01,03,01,24,1003.66
2008,01,03,01,25,1003.59
2008,01,03,01,26,1003.56
2008,01,03,01,27,1003.52
2008,01,03,01,28,1003.49
2008,01,03,01,29,1003.42
2008,01,03,01,30,1003.42
2008,01,03,01,31,1003.41
2008,01,03,01,32,1003.33
2008,01,03,01,33,1003.39
2008,01,03,01,34,1003.42
2008,01,03,01,35,1003.35
2008,01,03,01,36,1003.32
2008,01,03,01,37,1003.28
2008,01,03,01,38,1003.22
2008,01,03,01,39,1003.25
2008,01,03,01,40,1003.18
2008,01,03,01,41,1003.15
2008,01,03,01,42,1003.15
2008,01,03,01,43,1003.12
2008,01,03,01,44,1003.15
2008,01,03,01,45,1003.18
2008,01,03,01,46,1003.15
2008,01,03,01,47,1003.12
2008,01,03,01,48,1003.12
2008,01,03,01,49,1003.08
2008,01,03,01,50,1003.05
2008,01,03,01,51,1003.08
2008,01,03,01,52,1003.08
2008,01,03,01,53,1003.08
2008,01,03,01,54,1003.01
2008,01,03,01,55,1003.05
2008,01,03,01,56,1003.01
2008,01,03,01,57,1002.98
2008,01,03,01,58,1002.98
2008,01,03,01,59,1002.91
2008,01,03,02,00,1002.95
2008,01,03,02,01,1002.95
2008,01,03,02,02,1002.98
2008,01,03,02,03,1002.98
2008,01,03,02,04,1002.98
2008,01,03,02,05,1002.98
2008,01,03,02,06,1002.95
2008,01,03,02,07,1002.95
2008,01,03,02,08,1002.91
2008,01,03,02,09,1002.91
2008,01,03,02,10,1002.88
2008,01,03,02,11,1002.85
2008,01,03,02,12,1002.88
2008,01,03,02,13,1002.88
2008,01,03,02,14,1002.88
2008,01,03,02,15,1002.85
2008,01,03,02,16,1002.81
2008,01,03,02,17,1002.78
2008,01,03,02,18,1002.78
2008,01,03,02,19,1002.78
2008,01,03,02,20,1002.81
2008,01,03,02,21,1002.81
2008,01,03,02,22,1002.81
2008,01,03,02,23,1002.78
2008,01,03,02,24,1002.78
2008,01,03,02,25,1002.78
2008,01,03,02,26,1002.78
2008,01,03,02,27,1002.74
2008,01,03,02,28,1002.74
2008,01,03,02,29,1002.74
2008,01,03,02,30,1002.71
2008,01,03,02,31,1002.68
2008,01,03,02,32,1002.64
2008,01,03,02,33,1002.61
2008,01,03,02,34,1002.57
2008,01,03,02,35,1002.54
2008,01,03,02,36,1002.57
2008,01,03,02,37,1002.54
2008,01,03,02,38,1002.54
2008,01,03,02,39,1002.54
2008,01,03,02,40,1002.51
2008,01,03,02,41,1002.54
2008,01,03,02,42,1002.51
2008,01,03,02,43,1002.51
2008,01,03,02,44,1002.47
2008,01,03,02,45,1002.51
2008,01,03,02,46,1002.51
2008,01,03,02,47,1002.47
2008,01,03,02,48,1002.51
2008,01,03,02,49,1002.47
2008,01,03,02,50,1002.41
2008,01,03,02,51,1002.44
2008,01,03,02,52,1002.37
2008,01,03,02,53,1002.41
2008,01,03,02,54,1002.41
2008,01,03,02,55,1002.37
2008,01,03,02,56,1002.37
2008,01,03,02,57,1002.37
2008,01,03,02,58,1002.30
2008,01,03,02,59,1002.30
2008,01,03,03,00,1002.34
2008,01,03,03,01,1002.34
2008,01,03,03,02,1002.30
2008,01,03,03,03,1002.24
2008,01,03,03,04,1002.24
2008,01,03,03,05,1002.24
2008,01,03,03,06,1002.20
2008,01,03,03,07,1002.24
2008,01,03,03,08,1002.24
2008,01,03,03,09,1002.20
2008,01,03,03,10,1002.20
2008,01,03,03,11,1002.17
2008,01,03,03,12,1002.20
2008,01,03,03,13,1002.13
2008,01,03,03,14,1002.10
2008,01,03,03,15,1002.03
2008,01,03,03,16,1002.03
2008,01,03,03,17,1002.00
2008,01,03,03,18,1002.03
2008,01,03,03,19,1002.03
2008,01,03,03,20,1002.03
2008,01,03,03,21,1001.99
2008,01,03,03,22,1001.93
2008,01,03,03,23,1001.93
2008,01,03,03,24,1001.92
2008,01,03,03,25,1001.86
2008,01,03,03,26,1001.90
2008,01,03,03,27,1001.90
2008,01,03,03,28,1001.86
2008,01,03,03,29,1001.86
2008,01,03,03,30,1001.86
2008,01,03,03,31,1001.83
2008,01,03,03,32,1001.83
2008,01,03,03,33,1001.83
2008,01,03,03,34,1001.83
2008,01,03,03,35,1001.83
2008,01,03,03,36,1001.75
2008,01,03,03,37,1001.69
2008,01,03,03,38,1001.66
2008,01,03,03,39,1001.63
2008,01,03,03,40,1001.59
2008,01,03,03,41,1001.52
2008,01,03,03,42,1001.49
2008,01,03,03,43,1001.45
2008,01,03,03,44,1001.39
2008,01,03,03,45,1001.38
2008,01,03,03,46,1001.32
2008,01,03,03,47,1001.32
2008,01,03,03,48,1001.29
2008,01,03,03,49,1001.22
2008,01,03,03,50,1001.25
2008,01,03,03,51,1001.29
2008,01,03,03,52,1001.22
2008,01,03,03,53,1001.22
2008,01,03,03,54,1001.19
2008,01,03,03,55,1001.15
2008,01,03,03,56,1001.12
2008,01,03,03,57,1001.12
2008,01,03,03,58,1001.12
2008,01,03,03,59,1001.08
2008,01,03,04,00,1001.08
2008,01,03,04,01,1001.05
2008,01,03,04,02,1001.02
2008,01,03,04,03,1000.95
2008,01,03,04,04,1000.95
2008,01,03,04,05,1000.95
2008,01,03,04,06,1000.95
2008,01,03,04,07,1000.95
2008,01,03,04,08,1000.95
2008,01,03,04,09,1000.92
2008,01,03,04,10,1000.91
2008,01,03,04,11,1000.85
2008,01,03,04,12,1000.85
2008,01,03,04,13,1000.81
2008,01,03,04,14,1000.80
2008,01,03,04,15,1000.75
2008,01,03,04,16,1000.71
2008,01,03,04,17,1000.64
2008,01,03,04,18,1000.68
2008,01,03,04,19,1000.64
2008,01,03,04,20,1000.64
2008,01,03,04,21,1000.61
2008,01,03,04,22,1000.61
2008,01,03,04,23,1000.58
2008,01,03,04,24,1000.54
2008,01,03,04,25,1000.51
2008,01,03,04,26,1000.54
2008,01,03,04,27,1000.48
2008,01,03,04,28,1000.44
2008,01,03,04,29,1000.37
2008,01,03,04,30,1000.34
2008,01,03,04,31,1000.34
2008,01,03,04,32,1000.34
2008,01,03,04,33,1000.30
2008,01,03,04,34,1000.20
2008,01,03,04,35,1000.20
2008,01,03,04,36,1000.19
2008,01,03,04,37,1000.14
2008,01,03,04,38,1000.14
2008,01,03,04,39,1000.09
2008,01,03,04,40,1000.02
2008,01,03,04,41,999.97
2008,01,03,04,42,999.97
2008,01,03,04,43,999.93
2008,01,03,04,44,999.97
2008,01,03,04,45,999.97
2008,01,03,04,46,999.93
2008,01,03,04,47,999.90
2008,01,03,04,48,999.89
2008,01,03,04,49,999.80
2008,01,03,04,50,999.80
2008,01,03,04,51,999.80
2008,01,03,04,52,999.73
2008,01,03,04,53,999.70
2008,01,03,04,54,999.63
2008,01,03,04,55,999.59
2008,01,03,04,56,999.53
2008,01,03,04,57,999.53
2008,01,03,04,58,999.56
2008,01,03,04,59,999.48
2008,01,03,05,00,999.39
2008,01,03,05,01,999.46
2008,01,03,05,02,999.49
2008,01,03,05,03,999.46
2008,01,03,05,04,999.36
2008,01,03,05,05,999.32
2008,01,03,05,06,999.32
2008,01,03,05,07,999.32
2008,01,03,05,08,999.29
2008,01,03,05,09,999.31
2008,01,03,05,10,999.19
2008,01,03,05,11,999.19
2008,01,03,05,12,999.19
2008,01,03,05,13,999.15
2008,01,03,05,14,999.19
2008,01,03,05,15,999.19
2008,01,03,05,16,999.12
2008,01,03,05,17,999.09
2008,01,03,05,18,999.02
2008,01,03,05,19,998.99
2008,01,03,05,20,999.02
2008,01,03,05,21,999.05
2008,01,03,05,22,998.99
2008,01,03,05,23,998.95
2008,01,03,05,24,998.95
2008,01,03,05,25,998.92
2008,01,03,05,26,998.88
2008,01,03,05,27,998.82
2008,01,03,05,28,998.88
2008,01,03,05,29,998.78
2008,01,03,05,30,998.82
2008,01,03,05,31,998.78
2008,01,03,05,32,998.75
2008,01,03,05,33,998.78
2008,01,03,05,34,998.78
2008,01,03,05,35,998.75
2008,01,03,05,36,998.78
2008,01,03,05,37,998.71
2008,01,03,05,38,998.68
2008,01,03,05,39,998.71
2008,01,03,05,40,998.65
2008,01,03,05,41,998.68
2008,01,03,05,42,998.68
2008,01,03,05,43,998.68
2008,01,03,05,44,998.65
2008,01,03,05,45,998.68
2008,01,03,05,46,998.71
2008,01,03,05,47,998.68
2008,01,03,05,48,998.71
2008,01,03,05,49,998.71
2008,01,03,05,50,998.71
2008,01,03,05,51,998.68
2008,01,03,05,52,998.71
2008,01,03,05,53,998.68
2008,01,03,05,54,998.65
2008,01,03,05,55,998.61
2008,01,03,05,56,998.65
2008,01,03,05,57,998.65
2008,01,03,05,58,998.58
2008,01,03,05,59,998.58
2008,01,03,06,00,998.58
2008,01,03,06,01,998.54
2008,01,03,06,02,998.54
2008,01,03,06,03,998.51
2008,01,03,06,04,998.48
2008,01,03,06,05,998.48
2008,01,03,06,06,998.44
2008,01,03,06,07,998.44
2008,01,03,06,08,998.41
2008,01,03,06,09,998.41
2008,01,03,06,10,998.38
2008,01,03,06,11,998.38
2008,01,03,06,12,998.31
2008,01,03,06,13,998.27
2008,01,03,06,14,998.24
2008,01,03,06,15,998.24
2008,01,03,06,16,998.21
2008,01,03,06,17,998.24
2008,01,03,06,18,998.24
2008,01,03,06,19,998.21
2008,01,03,06,20,998.17
2008,01,03,06,21,998.17
2008,01,03,06,22,998.17
2008,01,03,06,23,998.10
2008,01,03,06,24,998.10
2008,01,03,06,25,998.04
2008,01,03,06,26,998.04
2008,01,03,06,27,997.97
2008,01,03,06,28,997.94
2008,01,03,06,29,997.94
2008,01,03,06,30,997.87
2008,01,03,06,31,997.87
2008,01,03,06,32,997.87
2008,01,03,06,33,997.87
2008,01,03,06,34,997.83
2008,01,03,06,35,997.80
2008,01,03,06,36,997.80
2008,01,03,06,37,997.80
2008,01,03,06,38,997.80
2008,01,03,06,39,997.83
2008,01,03,06,40,997.80
2008,01,03,06,41,997.80
2008,01,03,06,42,997.80
2008,01,03,06,43,997.77
2008,01,03,06,44,997.73
2008,01,03,06,45,997.77
2008,01,03,06,46,997.73
2008,01,03,06,47,997.73
2008,01,03,06,48,997.73
2008,01,03,06,49,997.70
2008,01,03,06,50,997.70
2008,01,03,06,51,997.63
2008,01,03,06,52,997.60
2008,01,03,06,53,997.60
2008,01,03,06,54,997.60
2008,01,03,06,55,997.56
2008,01,03,06,56,997.50
2008,01,03,06,57,997.46
2008,01,03,06,58,997.43
2008,01,03,06,59,997.39
2008,01,03,07,00,997.36
2008,01,03,07,01,997.39
2008,01,03,07,02,997.39
2008,01,03,07,03,997.36
2008,01,03,07,04,997.33
2008,01,03,07,05,997.39
2008,01,03,07,06,997.36
2008,01,03,07,07,997.33
2008,01,03,07,08,997.36
2008,01,03,07,09,997.29
2008,01,03,07,10,997.29
2008,01,03,07,11,997.26
2008,01,03,07,12,997.26
2008,01,03,07,13,997.26
2008,01,03,07,14,997.16
2008,01,03,07,15,997.15
2008,01,03,07,16,997.05
2008,01,03,07,17,997.02
2008,01,03,07,18,997.02
2008,01,03,07,19,996.99
2008,01,03,07,20,996.95
2008,01,03,07,21,996.92
2008,01,03,07,22,996.95
2008,01,03,07,23,996.95
2008,01,03,07,24,996.95
2008,01,03,07,25,996.92
2008,01,03,07,26,996.92
2008,01,03,07,27,996.89
2008,01,03,07,28,996.85
2008,01,03,07,29,996.78
2008,01,03,07,30,996.72
2008,01,03,07,31,996.68
2008,01,03,07,32,996.68
2008,01,03,07,33,996.65
2008,01,03,07,34,996.61
2008,01,03,07,35,996.65
2008,01,03,07,36,996.61
2008,01,03,07,37,996.58
2008,01,03,07,38,996.58
2008,01,03,07,39,996.55
2008,01,03,07,40,996.48
2008,01,03,07,41,996.48
2008,01,03,07,42,996.41
2008,01,03,07,43,996.34
2008,01,03,07,44,996.34
2008,01,03,07,45,996.28
2008,01,03,07,46,996.31
2008,01,03,07,47,996.34
2008,01,03,07,48,996.28
2008,01,03,07,49,996.21
2008,01,03,07,50,996.21
2008,01,03,07,51,996.17
2008,01,03,07,52,996.14
2008,01,03,07,53,996.14
2008,01,03,07,54,996.04
2008,01,03,07,55,995.96
2008,01,03,07,56,995.84
2008,01,03,07,57,995.84
2008,01,03,07,58,995.84
2008,01,03,07,59,995.83
2008,01,03,08,00,995.73
2008,01,03,08,01,995.67
2008,01,03,08,02,995.60
2008,01,03,08,03,995.56
2008,01,03,08,04,995.53
2008,01,03,08,05,995.46
2008,01,03,08,06,995.40
2008,01,03,08,07,995.36
2008,01,03,08,08,995.28
2008,01,03,08,09,995.19
2008,01,03,08,10,995.27
2008,01,03,08,11,995.35
2008,01,03,08,12,995.26
2008,01,03,08,13,995.26
2008,01,03,08,14,995.19
2008,01,03,08,15,995.19
2008,01,03,08,16,995.26
2008,01,03,08,17,995.26
2008,01,03,08,18,995.29
2008,01,03,08,19,995.26
2008,01,03,08,20,995.23
2008,01,03,08,21,995.26
2008,01,03,08,22,995.26
2008,01,03,08,23,995.19
2008,01,03,08,24,995.19
2008,01,03,08,25,995.12
2008,01,03,08,26,995.12
2008,01,03,08,27,995.19
2008,01,03,08,28,995.19
2008,01,03,08,29,995.26
2008,01,03,08,30,995.28
2008,01,03,08,31,995.19
2008,01,03,08,32,995.19
2008,01,03,08,33,995.12
2008,01,03,08,34,995.12
2008,01,03,08,35,995.09
2008,01,03,08,36,995.09
2008,01,03,08,37,995.05
2008,01,03,08,38,994.96
2008,01,03,08,39,994.96
2008,01,03,08,40,994.92
2008,01,03,08,41,994.96
2008,01,03,08,42,994.89
2008,01,03,08,43,994.89
2008,01,03,08,44,994.92
2008,01,03,08,45,994.89
2008,01,03,08,46,994.85
2008,01,03,08,47,994.85
2008,01,03,08,48,994.85
2008,01,03,08,49,994.82
2008,01,03,08,50,994.79
2008,01,03,08,51,994.82
2008,01,03,08,52,994.79
2008,01,03,08,53,994.78
2008,01,03,08,54,994.65
2008,01,03,08,55,994.68
2008,01,03,08,56,994.72
2008,01,03,08,57,994.72
2008,01,03,08,58,994.68
2008,01,03,08,59,994.68
2008,01,03,09,00,994.72
2008,01,03,09,01,994.65
2008,01,03,09,02,994.68
2008,01,03,09,03,994.68
2008,01,03,09,04,994.72
2008,01,03,09,05,994.78
2008,01,03,09,06,994.68
2008,01,03,09,07,994.72
2008,01,03,09,08,994.68
2008,01,03,09,09,994.68
2008,01,03,09,10,994.68
2008,01,03,09,11,994.62
2008,01,03,09,12,994.62
2008,01,03,09,13,994.58
2008,01,03,09,14,994.62
2008,01,03,09,15,994.62
2008,01,03,09,16,994.58
2008,01,03,09,17,994.52
2008,01,03,09,18,994.47
2008,01,03,09,19,994.38
2008,01,03,09,20,994.31
2008,01,03,09,21,994.30
2008,01,03,09,22,994.21
2008,01,03,09,23,994.18
2008,01,03,09,24,994.18
2008,01,03,09,25,994.18
2008,01,03,09,26,994.18
2008,01,03,09,27,994.11
2008,01,03,09,28,994.07
2008,01,03,09,29,994.07
2008,01,03,09,30,994.07
2008,01,03,09,31,994.01
2008,01,03,09,32,993.97
2008,01,03,09,33,993.91
2008,01,03,09,34,993.91
2008,01,03,09,35,993.91
2008,01,03,09,36,993.87
2008,01,03,09,37,993.84
2008,01,03,09,38,993.84
2008,01,03,09,39,993.84
2008,01,03,09,40,993.80
2008,01,03,09,41,993.74
2008,01,03,09,42,993.77
2008,01,03,09,43,993.77
2008,01,03,09,44,993.80
2008,01,03,09,45,993.87
2008,01,03,09,46,993.80
2008,01,03,09,47,993.84
2008,01,03,09,48,993.80
2008,01,03,09,49,993.84
2008,01,03,09,50,993.77
2008,01,03,09,51,993.74
2008,01,03,09,52,993.74
2008,01,03,09,53,993.74
2008,01,03,09,54,993.77
2008,01,03,09,55,993.74
2008,01,03,09,56,993.77
2008,01,03,09,57,993.70
2008,01,03,09,58,993.67
2008,01,03,09,59,993.63
2008,01,03,10,00,993.63
2008,01,03,10,01,993.63
2008,01,03,10,02,993.60
2008,01,03,10,03,993.63
2008,01,03,10,04,993.60
2008,01,03,10,05,993.60
2008,01,03,10,06,993.57
2008,01,03,10,07,993.47
2008,01,03,10,08,993.47
2008,01,03,10,09,993.47
2008,01,03,10,10,993.40
2008,01,03,10,11,993.33
2008,01,03,10,12,993.36
2008,01,03,10,13,993.30
2008,01,03,10,14,993.26
2008,01,03,10,15,993.23
2008,01,03,10,16,993.13
2008,01,03,10,17,993.13
2008,01,03,10,18,993.06
2008,01,03,10,19,992.99
2008,01,03,10,20,993.03
2008,01,03,10,21,992.96
2008,01,03,10,22,992.92
2008,01,03,10,23,992.86
2008,01,03,10,24,992.79
2008,01,03,10,25,992.75
2008,01,03,10,26,992.78
2008,01,03,10,27,992.65
2008,01,03,10,28,992.65
2008,01,03,10,29,992.65
2008,01,03,10,30,992.65
2008,01,03,10,31,992.62
2008,01,03,10,32,992.62
2008,01,03,10,33,992.55
2008,01,03,10,34,992.55
2008,01,03,10,35,992.52
2008,01,03,10,36,992.52
2008,01,03,10,37,992.52
2008,01,03,10,38,992.45
2008,01,03,10,39,992.38
2008,01,03,10,40,992.38
2008,01,03,10,41,992.31
2008,01,03,10,42,992.35
2008,01,03,10,43,992.38
2008,01,03,10,44,992.38
2008,01,03,10,45,992.31
2008,01,03,10,46,992.35
2008,01,03,10,47,992.35
2008,01,03,10,48,992.31
2008,01,03,10,49,992.31
2008,01,03,10,50,992.28
2008,01,03,10,51,992.28
2008,01,03,10,52,992.31
2008,01,03,10,53,992.31
2008,01,03,10,54,992.25
2008,01,03,10,55,992.28
2008,01,03,10,56,992.28
2008,01,03,10,57,992.21
2008,01,03,10,58,992.18
2008,01,03,10,59,992.14
2008,01,03,11,00,992.08
2008,01,03,11,01,991.98
2008,01,03,11,02,991.94
2008,01,03,11,03,991.87
2008,01,03,11,04,991.81
2008,01,03,11,05,991.81
2008,01,03,11,06,991.81
2008,01,03,11,07,991.77
2008,01,03,11,08,991.81
2008,01,03,11,09,991.74
2008,01,03,11,10,991.67
2008,01,03,11,11,991.60
2008,01,03,11,12,991.60
2008,01,03,11,13,991.57
2008,01,03,11,14,991.50
2008,01,03,11,15,991.53
2008,01,03,11,16,991.47
2008,01,03,11,17,991.47
2008,01,03,11,18,991.37
2008,01,03,11,19,991.33
2008,01,03,11,20,991.30
2008,01,03,11,21,991.30
2008,01,03,11,22,991.23
2008,01,03,11,23,991.16
2008,01,03,11,24,991.16
2008,01,03,11,25,991.09
2008,01,03,11,26,991.03
2008,01,03,11,27,990.99
2008,01,03,11,28,990.93
2008,01,03,11,29,990.93
2008,01,03,11,30,990.89
2008,01,03,11,31,990.89
2008,01,03,11,32,990.86
2008,01,03,11,33,990.86
2008,01,03,11,34,990.86
2008,01,03,11,35,990.82
2008,01,03,11,36,990.76
2008,01,03,11,37,990.72
2008,01,03,11,38,990.69
2008,01,03,11,39,990.65
2008,01,03,11,40,990.59
2008,01,03,11,41,990.52
2008,01,03,11,42,990.49
2008,01,03,11,43,990.52
2008,01,03,11,44,990.42
2008,01,03,11,45,990.34
2008,01,03,11,46,990.25
2008,01,03,11,47,990.25
2008,01,03,11,48,990.18
2008,01,03,11,49,990.18
2008,01,03,11,50,990.11
2008,01,03,11,51,990.08
2008,01,03,11,52,990.04
2008,01,03,11,53,990.04
2008,01,03,11,54,989.94
2008,01,03,11,55,989.91
2008,01,03,11,56,989.91
2008,01,03,11,57,989.87
2008,01,03,11,58,989.77
2008,01,03,11,59,989.71
2008,01,03,12,00,989.67
2008,01,03,12,01,989.64
2008,01,03,12,02,989.67
2008,01,03,12,03,989.60
2008,01,03,12,04,989.57
2008,01,03,12,05,989.57
2008,01,03,12,06,989.50
2008,01,03,12,07,989.44
2008,01,03,12,08,989.40
2008,01,03,12,09,989.40
2008,01,03,12,10,989.33
2008,01,03,12,11,989.30
2008,01,03,12,12,989.30
2008,01,03,12,13,989.27
2008,01,03,12,14,989.23
2008,01,03,12,15,989.23
2008,01,03,12,16,989.16
2008,01,03,12,17,989.16
2008,01,03,12,18,989.23
2008,01,03,12,19,989.10
2008,01,03,12,20,989.03
2008,01,03,12,21,989.00
2008,01,03,12,22,988.93
2008,01,03,12,23,988.86
2008,01,03,12,24,988.83
2008,01,03,12,25,988.82
2008,01,03,12,26,988.72
2008,01,03,12,27,988.76
2008,01,03,12,28,988.69
2008,01,03,12,29,988.66
2008,01,03,12,30,988.62
2008,01,03,12,31,988.55
2008,01,03,12,32,988.52
2008,01,03,12,33,988.42
2008,01,03,12,34,988.35
2008,01,03,12,35,988.32
2008,01,03,12,36,988.32
2008,01,03,12,37,988.28
2008,01,03,12,38,988.25
2008,01,03,12,39,988.25
2008,01,03,12,40,988.22
2008,01,03,12,41,988.15
2008,01,03,12,42,988.08
2008,01,03,12,43,988.08
2008,01,03,12,44,988.08
2008,01,03,12,45,987.98
2008,01,03,12,46,987.91
2008,01,03,12,47,987.84
2008,01,03,12,48,987.78
2008,01,03,12,49,987.78
2008,01,03,12,50,987.74
2008,01,03,12,51,987.67
2008,01,03,12,52,987.64
2008,01,03,12,53,987.61
2008,01,03,12,54,987.61
2008,01,03,12,55,987.64
2008,01,03,12,56,987.63
2008,01,03,12,57,987.51
2008,01,03,12,58,987.47
2008,01,03,12,59,987.51
2008,01,03,13,00,987.44
2008,01,03,13,01,987.34
2008,01,03,13,02,987.27
2008,01,03,13,03,987.27
2008,01,03,13,04,987.27
2008,01,03,13,05,987.23
2008,01,03,13,06,987.27
2008,01,03,13,07,987.20
2008,01,03,13,08,987.13
2008,01,03,13,09,987.13
2008,01,03,13,10,987.17
2008,01,03,13,11,987.10
2008,01,03,13,12,987.06
2008,01,03,13,13,987.06
2008,01,03,13,14,986.99
2008,01,03,13,15,986.90
2008,01,03,13,16,986.90
2008,01,03,13,17,986.86
2008,01,03,13,18,986.79
2008,01,03,13,19,986.76
2008,01,03,13,20,986.73
2008,01,03,13,21,986.76
2008,01,03,13,22,986.69
2008,01,03,13,23,986.73
2008,01,03,13,24,986.69
2008,01,03,13,25,986.66
2008,01,03,13,26,986.62
2008,01,03,13,27,986.65
2008,01,03,13,28,986.52
2008,01,03,13,29,986.52
2008,01,03,13,30,986.52
2008,01,03,13,31,986.49
2008,01,03,13,32,986.49
2008,01,03,13,33,986.46
2008,01,03,13,34,986.35
2008,01,03,13,35,986.39
2008,01,03,13,36,986.39
2008,01,03,13,37,986.32
2008,01,03,13,38,986.25
2008,01,03,13,39,986.32
2008,01,03,13,40,986.25
2008,01,03,13,41,986.18
2008,01,03,13,42,986.18
2008,01,03,13,43,986.22
2008,01,03,13,44,986.15
2008,01,03,13,45,986.12
2008,01,03,13,46,986.08
2008,01,03,13,47,986.05
2008,01,03,13,48,986.05
2008,01,03,13,49,986.02
2008,01,03,13,50,986.05
2008,01,03,13,51,986.08
2008,01,03,13,52,985.98
2008,01,03,13,53,986.02
2008,01,03,13,54,986.05
2008,01,03,13,55,986.02
2008,01,03,13,56,985.95
2008,01,03,13,57,985.98
2008,01,03,13,58,985.95
2008,01,03,13,59,985.98
2008,01,03,14,00,985.95
2008,01,03,14,01,985.98
2008,01,03,14,02,985.98
2008,01,03,14,03,985.91
2008,01,03,14,04,985.95
2008,01,03,14,05,985.91
2008,01,03,14,06,985.91
2008,01,03,14,07,985.95
2008,01,03,14,08,985.81
2008,01,03,14,09,985.85
2008,01,03,14,10,985.84
2008,01,03,14,11,985.74
2008,01,03,14,12,985.78
2008,01,03,14,13,985.81
2008,01,03,14,14,985.78
2008,01,03,14,15,985.81
2008,01,03,14,16,985.81
2008,01,03,14,17,985.81
2008,01,03,14,18,985.85
2008,01,03,14,19,985.81
2008,01,03,14,20,985.88
2008,01,03,14,21,985.98
2008,01,03,14,22,986.02
2008,01,03,14,23,986.05
2008,01,03,14,24,986.12
2008,01,03,14,25,986.18
2008,01,03,14,26,986.22
2008,01,03,14,27,986.22
2008,01,03,14,28,986.22
2008,01,03,14,29,986.12
2008,01,03,14,30,986.12
2008,01,03,14,31,986.15
2008,01,03,14,32,986.15
2008,01,03,14,33,986.15
2008,01,03,14,34,986.08
2008,01,03,14,35,986.15
2008,01,03,14,36,986.05
2008,01,03,14,37,986.05
2008,01,03,14,38,986.12
2008,01,03,14,39,986.08
2008,01,03,14,40,986.05
2008,01,03,14,41,986.08
2008,01,03,14,42,986.05
2008,01,03,14,43,986.02
2008,01,03,14,44,985.95
2008,01,03,14,45,985.85
2008,01,03,14,46,985.94
2008,01,03,14,47,985.85
2008,01,03,14,48,985.85
2008,01,03,14,49,985.91
2008,01,03,14,50,985.81
2008,01,03,14,51,985.71
2008,01,03,14,52,985.85
2008,01,03,14,53,985.88
2008,01,03,14,54,985.81
2008,01,03,14,55,985.81
2008,01,03,14,56,985.81
2008,01,03,14,57,985.74
2008,01,03,14,58,985.78
2008,01,03,14,59,985.78
2008,01,03,15,00,985.78
2008,01,03,15,01,985.71
2008,01,03,15,02,985.60
2008,01,03,15,03,985.47
2008,01,03,15,04,985.51
2008,01,03,15,05,985.57
2008,01,03,15,06,985.54
2008,01,03,15,07,985.61
2008,01,03,15,08,985.54
2008,01,03,15,09,985.54
2008,01,03,15,10,985.68
2008,01,03,15,11,985.72
2008,01,03,15,12,985.81
2008,01,03,15,13,985.85
2008,01,03,15,14,985.81
2008,01,03,15,15,985.88
2008,01,03,15,16,986.05
2008,01,03,15,17,986.08
2008,01,03,15,18,986.15
2008,01,03,15,19,986.02
2008,01,03,15,20,986.02
2008,01,03,15,21,986.25
2008,01,03,15,22,986.25
2008,01,03,15,23,986.25
2008,01,03,15,24,986.18
2008,01,03,15,25,986.18
2008,01,03,15,26,986.18
2008,01,03,15,27,985.98
2008,01,03,15,28,985.99
2008,01,03,15,29,986.08
2008,01,03,15,30,986.02
2008,01,03,15,31,985.98
2008,01,03,15,32,985.91
2008,01,03,15,33,986.15
2008,01,03,15,34,986.25
2008,01,03,15,35,986.26
2008,01,03,15,36,986.47
2008,01,03,15,37,986.56
2008,01,03,15,38,986.62
2008,01,03,15,39,986.59
2008,01,03,15,40,986.59
2008,01,03,15,41,986.59
2008,01,03,15,42,986.73
2008,01,03,15,43,986.83
2008,01,03,15,44,986.93
2008,01,03,15,45,987.17
2008,01,03,15,46,986.94
2008,01,03,15,47,987.18
2008,01,03,15,48,986.79
2008,01,03,15,49,986.90
2008,01,03,15,50,987.17
2008,01,03,15,51,987.34
2008,01,03,15,52,987.23
2008,01,03,15,53,987.30
2008,01,03,15,54,987.17
2008,01,03,15,55,987.03
2008,01,03,15,56,987.03
2008,01,03,15,57,987.06
2008,01,03,15,58,986.86
2008,01,03,15,59,987.09
2008,01,03,16,00,986.86
2008,01,03,16,01,986.80
2008,01,03,16,02,986.96
2008,01,03,16,03,987.20
2008,01,03,16,04,987.03
2008,01,03,16,05,987.20
2008,01,03,16,06,987.17
2008,01,03,16,07,987.13
2008,01,03,16,08,987.17
2008,01,03,16,09,987.23
2008,01,03,16,10,987.37
2008,01,03,16,11,987.44
2008,01,03,16,12,987.40
2008,01,03,16,13,987.47
2008,01,03,16,14,987.40
2008,01,03,16,15,987.37
2008,01,03,16,16,987.23
2008,01,03,16,17,987.06
2008,01,03,16,18,987.18
2008,01,03,16,19,987.34
2008,01,03,16,20,987.23
2008,01,03,16,21,987.20
2008,01,03,16,22,987.10
2008,01,03,16,23,986.95
2008,01,03,16,24,986.87